METEOR 2-7 DEB

Satellite information

Favourite Embed

Satellite Type and Status

DEBRISIN ORBIT

Key statistics

Satellite METEOR 2-7 DEB at a glance.

Uptime

16068

Days in orbit

Revolutions

≈ 14.3

Per day

Orbit

LEO

Low Earth Orbit

Inclination

81.3

Latest

Satellite identification and parameters

Extended collection of information and parameters for METEOR 2-7 DEB.

Object identification

Identified? True

Debris? True

Object name: METEOR 2-7 DEB

International designator: 1981-043Y

Object number (NORAD): 43301

Object ID (CCSDS): 43301

Country: COMMONWEALTH OF INDEPENDENT STATES (CIS)

Current information (Y/N): Y

RCS size: SMALL

Orbital parameters

Period: 100.9 minutes

Inclination: 81.2581 deg

SMA: 7179.382 km

Apoapsis: 835.323 km

Periapsis: 767.171 km

RAAN: 108.6541 deg

Eccentricy: 0.0047464

Argument of periapsis: 121.7409 deg

Mean anomaly: 238.841 deg

Mean motion: 14.27158307 rev/day

Mean motion (dot): 0.00004797 rev/day2

B* drag term: 0.0019375 1/REarth

Two-line elements (TLE)

Creation date: May 10, 2025, 5:27 p.m.

Reference frame: TEME

Reference center: EARTH

Epoch: May 10, 2025, 9 a.m. UTC

TLE line 0: 0 METEOR 2-7 DEB

TLE line 1: 1 43301U 81043Y 25130.37512601 .00004797 00000-0 19375-2 0 9997

TLE line 2: 2 43301 81.2581 108.6541 0047464 121.7409 238.8410 14.27158307457316

Live tracking on map

Real-time ground track for satellite METEOR 2-7 DEB.

In-orbit conjunctions

A list of the most updated potential collisions computed for object METEOR 2-7 DEB.

Target Orbit TCA Probability of collision Miss distance Type
CZ-6A DEB SSO 2025-01-28 01:54:42 0.0001116069 155.0 (m) DEBRIS
DMSP 5D-2 F13 DEB SSO 2024-07-14 13:12:28 0.000400895 52.0 (m) DEBRIS

Associated space launch

Second generation soviet meteorological satellite

METEOR 2-7 DEB was lifted into orbit during the mission ‘Vostok 8A92M | Meteor-2 7’, on board a Vostok 8A92M space rocket.

The launch took place on May 14, 1981, 9:45 p.m. from 43/3 (43L).

For more information about the launch, click the button.

Launch to space Vostok 8A92M | Meteor-2 7
Vostok 8A92M | Meteor-2 7

Agency: N/A

Status: Launch Successful

Launch date: May 14, 1981, 9:45 p.m. UTC

Rocket: Vostok 8A92M

Launch pad: 43/3 (43L)

Location: Plesetsk Cosmodrome, Russian Federation

...

Latest news about this satellite

There are no fresh news available about this satellite. Check back as we update our databases every day.


Newsletter sign-up

Weekly statistics, charts and insights to help you stay on top of the space industry.